Weather History for Macomb, IL

Change the Weather History Date:

Tuesday, December 4, 2012

  Actual Average (KBRL) Record (KBRL)
Temperature  
Mean Temperature 46 °F 33 °F  
Max Temperature 59 °F 41 °F 73 °F (1998)
Min Temperature 32 °F 25 °F -3 °F (1991)
Degree Days  
Heating Degree Days 20 32  
Month to date heating degree days 126  
Since 1 July heating degree days 1199  
Cooling Degree Days 0 0  
Month to date cooling degree days 0  
Year to date cooling degree days 1207  
Moisture  
Dew Point 33 °F    
Average Humidity 62    
Maximum Humidity 81    
Minimum Humidity 30    
Precipitation  
Precipitation 0.00 in 0.07 in 0.62 in (1999)
Month to date precipitation 0.31  
Year to date precipitation 36.70  
Sea Level Pressure  
Sea Level Pressure 30.18 in    
Wind  
Wind Speed 9 mph (NW)    
Max Wind Speed 16 mph    
Max Gust Speed 21 mph    
Visibility 10 miles    
Events      
T = Trace of Precipitation, MM = Missing Value Source: NWS Daily Summary

Daily Weather History Graph

Daily Weather History Graph

Search for Another Location

Airport:

Trip Planner

Search our weather history database for the weather conditions in past years. The results will help you decide how hot, cold, wet, or windy it might be!

Date:

Astronomy

Dec. 04, 2012 Rise Set
Actual Time 7:10 AM CST 4:35 PM CST
Civil Twilight 6:39 AM CST 5:06 PM CST
Nautical Twilight 6:05 AM CST 5:40 PM CST
Astronomical Twilight 5:32 AM CST 6:13 PM CST
Moon 10:24 PM CST (12/4) 11:03 AM CST (12/4)
Length of Visible Light 10h 26m
Length of Day
9h 25m
Waning Gibbous, 69% of the Moon is Illuminated
Dec 4
Waning Gibbous
Dec 6
Last Quarter
Dec 13
New
Dec 19
First Quarter
Dec 28
Full

Hourly Weather History & Observations

Time (CST) Temp. Windchill Dew Point Humidity Pressure Visibility Wind Dir Wind Speed Gust Speed Precip Events Conditions
12:15 AM 52.7 °F - 42.8 °F 69% 30.00 in 10.0 mi NNW 11.5 mph - N/A   Overcast
12:35 AM 52.0 °F - 42.8 °F 71% 30.00 in 10.0 mi NNW 10.4 mph - N/A   Overcast
12:55 AM 51.8 °F - 42.1 °F 69% 30.00 in 10.0 mi North 10.4 mph - N/A   Overcast
1:15 AM 51.1 °F - 41.5 °F 70% 30.01 in 10.0 mi NNW 10.4 mph - N/A   Overcast
1:35 AM 50.5 °F - 40.5 °F 68% 30.01 in 10.0 mi North 9.2 mph - N/A   Overcast
1:55 AM 50.0 °F - 40.1 °F 69% 30.03 in 10.0 mi North 8.1 mph - N/A   Overcast
2:15 AM 48.6 °F - 39.7 °F 72% 30.03 in 10.0 mi North 8.1 mph - N/A   Mostly Cloudy
2:35 AM 47.5 °F - 39.4 °F 73% 30.05 in 10.0 mi North 6.9 mph - N/A   Clear
2:55 AM 46.6 °F - 38.8 °F 74% 30.06 in 10.0 mi NNW 8.1 mph - N/A   Clear
3:15 AM 46.2 °F 42.7 °F 38.3 °F 74% 30.07 in 10.0 mi NNW 6.9 mph - N/A   Clear
3:35 AM 45.1 °F 42.0 °F 37.9 °F 76% 30.08 in 10.0 mi NNW 5.8 mph - N/A   Clear
3:55 AM 44.8 °F 41.0 °F 38.3 °F 78% 30.08 in 10.0 mi NNW 6.9 mph - N/A   Clear
4:15 AM 45.3 °F 41.6 °F 38.3 °F 76% 30.10 in 10.0 mi NW 6.9 mph - N/A   Clear
4:35 AM 44.1 °F 40.1 °F 37.8 °F 78% 30.10 in 10.0 mi NNW 6.9 mph - N/A   Clear
4:55 AM 44.6 °F 39.7 °F 37.6 °F 76% 30.10 in 10.0 mi NNW 9.2 mph - N/A   Clear
5:15 AM 44.6 °F 40.7 °F 37.4 °F 76% 30.10 in 10.0 mi NNW 6.9 mph - N/A   Clear
5:35 AM 44.6 °F 40.2 °F 37.2 °F 75% 30.10 in 10.0 mi NNW 8.1 mph - N/A   Clear
5:55 AM 43.9 °F 39.9 °F 37.4 °F 78% 30.11 in 10.0 mi NNW 6.9 mph - N/A   Clear
6:15 AM 43.7 °F 39.7 °F 36.9 °F 77% 30.12 in 10.0 mi NNW 6.9 mph - N/A   Clear
6:35 AM 43.5 °F 38.9 °F 36.5 °F 76% 30.13 in 10.0 mi NW 8.1 mph - N/A   Clear
6:55 AM 43.3 °F 38.6 °F 36.7 °F 77% 30.14 in 10.0 mi NNW 8.1 mph - N/A   Clear
7:15 AM 43.2 °F 38.4 °F 36.5 °F 77% 30.15 in 10.0 mi NNW 8.1 mph - N/A   Clear
7:35 AM 42.8 °F 37.5 °F 37.4 °F 81% 30.16 in 10.0 mi NW 9.2 mph - N/A   Clear
7:55 AM 43.3 °F 38.1 °F 36.7 °F 77% 30.16 in 10.0 mi NW 9.2 mph - N/A   Clear
8:15 AM 43.5 °F 40.1 °F 36.7 °F 77% 30.17 in 10.0 mi NW 5.8 mph - N/A   Clear
8:35 AM 43.2 °F 38.4 °F 37.0 °F 79% 30.18 in 10.0 mi NW 8.1 mph - N/A   Clear
8:55 AM 44.1 °F 40.1 °F 37.4 °F 77% 30.18 in 10.0 mi WNW 6.9 mph - N/A   Clear
9:15 AM 44.6 °F 40.2 °F 37.4 °F 76% 30.18 in 10.0 mi WNW 8.1 mph - N/A   Clear
9:35 AM 45.9 °F 41.2 °F 37.4 °F 72% 30.20 in 10.0 mi WNW 9.2 mph - N/A   Clear
9:55 AM 47.7 °F - 36.7 °F 66% 30.21 in 10.0 mi NW 8.1 mph - N/A   Clear
10:15 AM 49.5 °F - 36.1 °F 60% 30.21 in 10.0 mi WNW 9.2 mph - N/A   Clear
10:35 AM 50.9 °F - 35.6 °F 56% 30.21 in 10.0 mi NW 10.4 mph - N/A   Clear
10:55 AM 52.0 °F - 35.1 °F 53% 30.21 in 10.0 mi NW 10.4 mph - N/A   Clear
11:15 AM 52.7 °F - 34.5 °F 50% 30.21 in 10.0 mi NW 9.2 mph - N/A   Clear
11:35 AM 54.0 °F - 34.5 °F 48% 30.20 in 10.0 mi WNW 9.2 mph - N/A   Clear
11:55 AM 54.7 °F - 34.3 °F 46% 30.20 in 10.0 mi WNW 9.2 mph - N/A   Clear
12:15 PM 56.1 °F - 33.3 °F 42% 30.19 in 10.0 mi WNW 11.5 mph - N/A   Clear
12:35 PM 57.2 °F - 31.8 °F 38% 30.19 in 10.0 mi WNW 10.4 mph - N/A   Clear
12:55 PM 57.7 °F - 30.7 °F 36% 30.18 in 10.0 mi WNW 10.4 mph - N/A   Clear
1:15 PM 59.0 °F - 30.2 °F 34% 30.18 in 10.0 mi WNW 12.7 mph - N/A   Clear
1:35 PM 59.2 °F - 30.0 °F 33% 30.18 in 10.0 mi NW 12.7 mph - N/A   Clear
1:55 PM 59.5 °F - 29.5 °F 32% 30.17 in 10.0 mi WNW 15.0 mph 18.4 mph N/A   Clear
2:15 PM 59.7 °F - 28.4 °F 30% 30.18 in 10.0 mi WNW 16.1 mph 20.7 mph N/A   Clear
2:35 PM 59.9 °F - 29.5 °F 32% 30.19 in 10.0 mi WNW 15.0 mph - N/A   Clear
2:55 PM 59.5 °F - 29.1 °F 32% 30.19 in 10.0 mi WNW 12.7 mph - N/A   Clear
3:15 PM 59.4 °F - 28.0 °F 30% 30.20 in 10.0 mi WNW 13.8 mph - N/A   Clear
3:35 PM 59.0 °F - 29.1 °F 32% 30.20 in 10.0 mi WNW 11.5 mph - N/A   Clear
3:55 PM 57.6 °F - 29.8 °F 35% 30.21 in 10.0 mi West 9.2 mph - N/A   Clear
4:15 PM 55.8 °F - 29.5 °F 37% 30.22 in 10.0 mi West 6.9 mph - N/A   Clear
4:35 PM 53.6 °F - 28.4 °F 38% 30.22 in 10.0 mi West 6.9 mph - N/A   Clear
4:55 PM 51.8 °F - 28.4 °F 41% 30.22 in 10.0 mi West 5.8 mph - N/A   Clear
5:15 PM 49.5 °F - 27.9 °F 43% 30.22 in 10.0 mi West 5.8 mph - N/A   Clear
5:35 PM 46.6 °F - 27.5 °F 47% 30.23 in 10.0 mi West 6.9 mph - N/A   Clear
5:55 PM 44.8 °F 41.0 °F 28.0 °F 52% 30.23 in 10.0 mi West 6.9 mph - N/A   Clear
6:15 PM 40.8 °F 36.2 °F 28.4 °F 61% 30.24 in 10.0 mi West 6.9 mph - N/A   Clear
6:35 PM 39.2 °F 33.6 °F 27.5 °F 63% 30.25 in 10.0 mi West 8.1 mph - N/A   Clear
6:55 PM 39.2 °F 33.6 °F 27.5 °F 63% 30.25 in 10.0 mi WNW 8.1 mph - N/A   Clear
7:15 PM 37.8 °F 31.3 °F 27.5 °F 67% 30.26 in 10.0 mi WNW 9.2 mph - N/A   Clear
7:35 PM 39.2 °F 33.6 °F 27.5 °F 63% 30.26 in 10.0 mi NW 8.1 mph - N/A   Clear
7:55 PM 36.9 °F 31.4 °F 27.1 °F 68% 30.27 in 10.0 mi NW 6.9 mph - N/A   Clear
8:15 PM 37.6 °F 32.3 °F 27.0 °F 66% 30.27 in 10.0 mi NW 6.9 mph - N/A   Clear
8:35 PM 40.3 °F 34.9 °F 27.7 °F 61% 30.28 in 10.0 mi NW 8.1 mph - N/A   Clear
8:55 PM 39.6 °F 34.0 °F 27.9 °F 63% 30.28 in 10.0 mi NNW 8.1 mph - N/A   Clear
9:15 PM 40.1 °F 35.3 °F 28.4 °F 63% 30.29 in 10.0 mi NNW 6.9 mph - N/A   Clear
9:35 PM 38.8 °F 34.6 °F 27.5 °F 64% 30.29 in 10.0 mi NNW 5.8 mph - N/A   Clear
9:55 PM 38.5 °F 36.1 °F 27.5 °F 65% 30.30 in 10.0 mi NNW 3.5 mph - N/A   Clear
10:15 PM 32.2 °F - 26.1 °F 78% 30.30 in 10.0 mi Calm Calm - N/A   Clear
10:35 PM 35.8 °F - 27.1 °F 71% 30.30 in 10.0 mi Calm Calm - N/A   Clear
10:55 PM 36.5 °F 31.8 °F 27.1 °F 69% 30.31 in 10.0 mi North 5.8 mph - N/A   Clear
11:10 PM 35.6 °F 29.2 °F 26.6 °F 70% 30.32 in 10.0 mi North 8.1 mph - N/A   Clear
11:15 PM 35.6 °F 29.2 °F 27.7 °F 73% 30.32 in 10.0 mi North 8.1 mph - N/A   Clear
11:35 PM 34.5 °F 27.9 °F 28.2 °F 78% 30.32 in 10.0 mi North 8.1 mph - N/A   Clear
11:55 PM 34.5 °F 27.9 °F 28.4 °F 78% 30.32 in 10.0 mi North 8.1 mph - N/A   Clear